| time (UTC) | temp C | wind direction | speed KPH | gust KPH | rain 1hr cm | rain 24hr cm | rain mn cm | humidity % | barometer mb |
| 20260904090204 | 17 | 57 | 11.3 | 25.7 | 0.00 | 0.00 | 0.00 | 49 | |
| 20260904085204 | 17 | 49 | 8.0 | 25.7 | 0.00 | 0.00 | 0.00 | 48 | |
| 20260904084203 | 17 | 42 | 16.1 | 20.9 | 0.00 | 0.00 | 0.00 | 47 | |
| 20260904083202 | 17 | 49 | 4.8 | 25.7 | 0.00 | 0.00 | 0.00 | 49 | |
| 20260904081701 | 17 | 60 | 22.5 | 25.7 | 0.00 | 0.00 | 0.00 | 49 | |
| 20260904080700 | 17 | 78 | 3.2 | 29.0 | 0.00 | 0.00 | 0.00 | 49 | |
| 20260904075700 | 17 | 64 | 29.0 | 32.2 | 0.00 | 0.00 | 0.00 | 48 | |
| 20260904074659 | 17 | 50 | 8.0 | 25.7 | 0.00 | 0.00 | 0.00 | 48 | |
| 20260904073658 | 17 | 67 | 0.0 | 25.7 | 0.00 | 0.00 | 0.00 | 48 | |
| 20260904072657 | 17 | 50 | 3.2 | 16.1 | 0.00 | 0.00 | 0.00 | 50 | |
| 20260904071657 | 16 | 61 | 9.7 | 20.9 | 0.00 | 0.00 | 0.00 | 50 | |
| 20260904070656 | 16 | 45 | 3.2 | 20.9 | 0.00 | 0.00 | 0.00 | 53 | |
| 20260904065656 | 15 | 59 | 0.0 | 14.5 | 0.00 | 0.00 | 0.00 | 100 | |
| 20260904064655 | 15 | 74 | 0.0 | 11.3 | 0.00 | 0.00 | 0.00 | 100 | |
| 20260904063655 | 14 | 49 | 0.0 | 9.7 | 0.00 | 0.00 | 0.00 | 100 | |
| 20260904062654 | 14 | 54 | 0.0 | 12.9 | 0.00 | 0.00 | 0.00 | 100 | |
| 20260904061653 | 13 | 61 | 14.5 | 24.1 | 0.00 | 0.00 | 0.00 | 61 | |
| 20260904060653 | 13 | 49 | 0.0 | 17.7 | 0.00 | 0.00 | 0.00 | 100 | |
| 20260904055652 | 12 | 45 | 6.4 | 20.9 | 0.00 | 0.00 | 0.00 | 64 | |
| 20260904054652 | 12 | 63 | 6.4 | 20.9 | 0.00 | 0.00 | 0.00 | 64 | |
| 20260904053651 | 12 | 56 | 0.0 | 17.7 | 0.00 | 0.00 | 0.00 | 64 | |
| 20260904052651 | 12 | 56 | 4.8 | 22.5 | 0.00 | 0.00 | 0.00 | 65 | |
| 20260903164422 | 12 | 53 | 0.0 | 0.0 | 0.00 | 0.00 | 0.00 | 79 | |
| 20260903163421 | 13 | 53 | 0.0 | 0.0 | 0.00 | 0.00 | 0.00 | 77 | |
| 20260903162421 | 13 | 53 | 0.0 | 0.0 | 0.00 | 0.00 | 0.00 | 75 | |
| 20260903161420 | 13 | 59 | 0.0 | 9.7 | 0.00 | 0.00 | 0.00 | 68 | |
| 20260903160420 | 13 | 54 | 0.0 | 0.0 | 0.00 | 0.00 | 0.00 | 70 | |
| 20260903155419 | 14 | 54 | 6.4 | 9.7 | 0.00 | 0.00 | 0.00 | 69 | |
| 20260903154419 | 15 | 77 | 0.0 | 0.0 | 0.00 | 0.00 | 0.00 | 68 | |
| 20260903153418 | 15 | 77 | 0.0 | 0.0 | 0.00 | 0.00 | 0.00 | 66 | |
| 20260903152417 | 15 | 67 | 3.2 | 3.2 | 0.00 | 0.00 | 0.00 | 64 | |
| 20260903151417 | 15 | 64 | 0.0 | 0.0 | 0.00 | 0.00 | 0.00 | 63 | |
| 20260903150416 | 15 | 64 | 0.0 | 0.0 | 0.00 | 0.00 | 0.00 | 66 | |
| 20260903145416 | 15 | 64 | 0.0 | 0.0 | 0.00 | 0.00 | 0.00 | 68 | |
| 20260903144415 | 14 | 64 | 0.0 | 12.9 | 0.00 | 0.00 | 0.00 | 66 | |
| 20260903143414 | 15 | 57 | 0.0 | 22.5 | 0.00 | 0.00 | 0.00 | 62 | |
| 20260903142510 | 15 | 59 | 3.2 | 14.5 | 0.00 | 0.00 | 0.00 | 59 | |
| 20260903142414 | 15 | 59 | 3.2 | 14.5 | 0.00 | 0.00 | 0.00 | 59 | |
| 20260903141413 | 17 | 47 | 0.0 | 6.4 | 0.00 | 0.00 | 0.00 | 59 | |
| 20260903140413 | 18 | 102 | 0.0 | 0.0 | 0.00 | 0.00 | 0.00 | 55 | |
| 20260903135412 | 18 | 102 | 0.0 | 0.0 | 0.00 | 0.00 | 0.00 | 51 | |
| 20260903134411 | 19 | 47 | 3.2 | 3.2 | 0.00 | 0.00 | 0.00 | 100 | |
| 20260903133411 | 18 | 63 | 0.0 | 0.0 | 0.00 | 0.00 | 0.00 | 56 | |
| 20260903132410 | 16 | 63 | 0.0 | 0.0 | 0.00 | 0.00 | 0.00 | 58 | |
| 20260903131410 | 17 | 63 | 0.0 | 0.0 | 0.00 | 0.00 | 0.00 | 61 | |
| 20260903130413 | 17 | 63 | 0.0 | 0.0 | 0.00 | 0.00 | 0.00 | 60 | |
| 20260903125410 | 17 | 63 | 0.0 | 0.0 | 0.00 | 0.00 | 0.00 | 59 | |
| 20260903124410 | 17 | 63 | 0.0 | 0.0 | 0.00 | 0.00 | 0.00 | 57 | |
| 20260903123411 | 18 | 63 | 0.0 | 0.0 | 0.00 | 0.00 | 0.00 | 54 | |
| 20260903122407 | 19 | 63 | 0.0 | 0.0 | 0.00 | 0.00 | 0.00 | 51 | |
| 20260903121406 | 18 | 50 | 0.0 | 9.7 | 0.00 | 0.00 | 0.00 | 54 | |
| 20260903120406 | 17 | 57 | 0.0 | 14.5 | 0.00 | 0.00 | 0.00 | 100 | |
| 20260903115405 | 16 | 56 | 0.0 | 17.7 | 0.00 | 0.00 | 0.00 | 57 | |
| 20260903114405 | 16 | 56 | 11.3 | 17.7 | 0.00 | 0.00 | 0.00 | 48 | |
| 20260903113404 | 16 | 59 | 9.7 | 19.3 | 0.00 | 0.00 | 0.00 | 49 | |
| 20260903112403 | 15 | 61 | 4.8 | 17.7 | 0.00 | 0.00 | 0.00 | 54 | |
| 20260903111403 | 15 | 56 | 4.8 | 16.1 | 0.00 | 0.00 | 0.00 | 52 | |
| 20260903110441 | 15 | 49 | 1.6 | 11.3 | 0.00 | 0.00 | 0.00 | 52 | |
| 20260903110402 | 15 | 49 | 1.6 | 11.3 | 0.00 | 0.00 | 0.00 | 52 | |
| 20260903105402 | 15 | 63 | 1.6 | 22.5 | 0.00 | 0.00 | 0.00 | 55 | |
| 20260903104401 | 15 | 52 | 0.0 | 16.1 | 0.00 | 0.00 | 0.00 | 56 | |
| 20260903103401 | 16 | 57 | 4.8 | 11.3 | 0.00 | 0.00 | 0.00 | 54 | |
| 20260903102400 | 16 | 49 | 0.0 | 16.1 | 0.00 | 0.00 | 0.00 | 52 | |
| 20260903101359 | 16 | 56 | 0.0 | 8.0 | 0.00 | 0.00 | 0.00 | 52 | |
| 20260903100359 | 16 | 40 | 0.0 | 25.7 | 0.00 | 0.00 | 0.00 | 55 | |
| 20260903095358 | 16 | 54 | 6.4 | 27.4 | 0.00 | 0.00 | 0.00 | 48 | |
| 20260903094359 | 17 | 60 | 0.0 | 9.7 | 0.00 | 0.00 | 0.00 | 49 | |
| 20260903093357 | 16 | 52 | 4.8 | 12.9 | 0.00 | 0.00 | 0.00 | 56 | |
| 20260903092357 | 15 | 54 | 0.0 | 12.9 | 0.00 | 0.00 | 0.00 | 53 | |
| 20260903091356 | 13 | 88 | 4.8 | 17.7 | 0.00 | 0.00 | 0.00 | 100 |